Location: Unspecified
(0.0000°N, 0.0000°E)
Time: 08:20:57
(UTC+01:00)

ARIANE DEB (SPELDA) - Visible Passes

Search period start: 16 December 2017 00:00
Search period end: 26 December 2017 00:00
Orbit: 354 x 32839 km, 3.8° (Epoch: 15 December)

Date Brightness Start Highest point End Pass type
(mag) Time Alt. Az. Time Alt. Az. Time Alt. Az.
16 Dec 2.2 05:30:32 49° N 05:30:32 49° N 05:32:48 10° ENE visible
16 Dec 7.5 15:37:27 10° W 17:29:14 75° WSW 00:14:13 73° WNW visible
17 Dec 5.7 10:34:33 10° W 17:37:59 45° E 19:22:16 10° E visible
18 Dec 2.0 05:38:57 45° NNW 05:39:14 48° N 05:41:28 10° ENE visible
18 Dec 7.5 15:46:52 10° W 17:38:26 71° WSW 00:22:50 68° WNW visible
19 Dec 5.9 10:43:08 10° W 17:47:00 49° E 19:32:52 10° E visible
20 Dec 1.9 05:47:20 38° NW 05:47:56 48° N 05:50:10 10° ENE visible
20 Dec 7.5 15:56:25 10° W 17:47:39 68° W 00:31:26 64° W visible
21 Dec 6.0 10:51:43 10° W 17:56:04 52° E 19:43:13 10° E visible
22 Dec 1.8 05:55:42 30° WNW 05:56:38 49° N 05:58:56 10° E visible
22 Dec 7.5 16:06:03 10° W 17:56:51 64° W 00:40:00 59° W visible
23 Dec 6.1 11:00:18 10° W 18:05:12 56° E 19:53:21 10° E visible
24 Dec 1.7 06:04:03 23° WNW 06:05:19 52° N 06:07:44 10° E visible
24 Dec 7.5 16:15:49 10° W 18:06:00 60° W 00:48:33 54° W visible
25 Dec 6.3 11:08:54 10° W 18:14:23 60° E 20:03:17 10° E visible
